Regional Weather Roundup
Issued by NWS Sterling, VA

Home | Current Version | Previous Version | Text Only | Print | Product List | Glossary Off
Versions: 1 2 3 4 5 6 7 8 9 10 11 12 13 14 15 16 17 18 19 20 21 22 23 24 25 26 27

000
ASUS41 KLWX 271011
RWRLWX

REGIONAL WEATHER ROUNDUP
NATIONAL WEATHER SERVICE BALTIMORE MD/WASHINGTON DC
600 AM EDT THU APR 27 2017

Note: "FAIR" indicates few or no clouds below 12,000 feet
with no significant weather and/or obstructions to visibility.
 TC=TEMPERATURE CELSIUS

 * =Non NWS site. Station does not report precipitation (e.g. rain,
    snow, etc.), thunder, or fog.

DCZ001-MDZ009-015-VAZ040>042-051-053>054-271100-
WASHINGTON METRO

CITY           SKY/WX    TMP DP  RH WIND       PRES   REMARKS
WASHINGTON NAT CLEAR     59  58  96 NE5       29.83S
DULLES         CLOUDY    58  56  93 CALM      29.83R FOG
ANDREWS AFB    FOG       55  55 100 CALM      29.83R VSB 3/4
FT BELVOIR     PTCLDY    54  52  94 CALM      29.82S
QUANTICO       PTCLDY    58  57  97 NW3       29.83R
COLLEGE PARK*  CLOUDY    55  54  98 CALM      29.84R VSB 3/4
LEESBURG*      CLOUDY    59  59 100 E5        29.84R FOG
MANASSAS*        N/A     59  58  96 CALM      29.83R

$$

MDZ006>007-011-014-271100-
BALTIMORE METRO

CITY           SKY/WX    TMP DP  RH WIND       PRES   REMARKS
BWI AIRPORT    CLOUDY    58  58 100 E5        29.84R FOG
MD SCIENCE CTR   N/A     59  55  87 MISG      29.84R
MARTIN STATE   PTCLDY    55  55 100 CALM      29.86R FOG
ANNAPOLIS      CLEAR     59  58  96 E5        29.83R FOG
FORT MEADE*    CLOUDY    54  54 100 CALM      29.87R VSB 1

$$

MDZ012-015-019>023-271100-
MARYLAND EASTERN SHORE

CITY           SKY/WX    TMP DP  RH WIND       PRES   REMARKS
OCEAN CITY     CLOUDY    54  53  97 SE3       29.88R
SALISBURY      CLOUDY    55  55 100 SE3       29.85R
BAY BRIDGE AP* CLEAR     57  55  94 E3        29.84R FOG
CAMBRIDGE*       N/A     55  54  94 SE5       29.84R FOG
EASTON*        PTCLDY    57  55  94 CALM      29.88R FOG

$$

MDZ017>025-271100-
SOUTHERN MARYLAND

CITY           SKY/WX    TMP DP  RH WIND       PRES   REMARKS
PATUXENT RIVER PTCLDY    58  58 100 SE3       29.83R
ST INIGOES     CLEAR     58  57  97 CALM      29.82R
LEONARDTOWN*   CLEAR     55  54  94 CALM      29.85R

$$

MDZ003>005-271100-
NORTH CENTRAL MARYLAND

CITY           SKY/WX    TMP DP  RH WIND       PRES   REMARKS
FREDERICK*     CLOUDY    55  55 100 CALM      29.86R
HAGERSTOWN APT CLEAR     58  56  93 CALM      29.81R
WESTMINSTER*   FOG       57  57 100 SE5       29.84R VSB 3/4

$$

MDZ501>502-271100-
WESTERN MARYLAND

CITY           SKY/WX    TMP DP  RH WIND       PRES   REMARKS
OAKLAND*       CLEAR     55  54  94 S10       29.80S
CUMBERLAND*    CLEAR     54  54 100 CALM      29.82S

$$

VAZ025>031-271100-
SHENANDOAH VALLEY

CITY           SKY/WX    TMP DP  RH WIND       PRES   REMARKS
WINCHESTER*    MOCLDY    54  54 100 CALM      29.79S FOG
FRONT ROYAL*   CLOUDY    54  54 100 CALM      29.79S VSB 1/2
LURAY*         FOG       52  52 100 CALM      29.79S VSB 1/4
NEW MARKET*    CLOUDY    53  52  95 CALM      29.79S VSB 3/4
STAUNTON*      CLEAR     53  52  97 CALM      29.82S
WAYNESBORO*    CLEAR     56  56 100 CALM      29.81F

$$

WVZ021-048>050-054>055-271100-
EASTERN WEST VIRGINIA PANHANDLE

CITY           SKY/WX    TMP DP  RH WIND       PRES   REMARKS
MARTINSBURG    CLOUDY    59  57  93 E3        29.79S FOG
PETERSBURG*    FOG       55  55  99 CALM      29.79S VSB 1/4

$$

VAZ036>039-050-271100-
CENTRAL FOOTHILLS

CITY           SKY/WX    TMP DP  RH WIND       PRES   REMARKS
CHARLOTTESVILL CLEAR     59  57  93 CALM      29.80S FOG
CULPEPER*      FOG       60  60 100 CALM      29.83R VSB 1/4
ORANGE*        FOG       52  52 100 CALM      29.81S VSB 1/2
GORDONSVILLE*  PTCLDY    53  53 100 CALM      29.81R
WARRENTON*     CLOUDY    61  58  91 CALM      29.81S FOG

$$

VAZ055>057-271100-
NORTH AND CENTRAL PIEDMONT

CITY           SKY/WX    TMP DP  RH WIND       PRES   REMARKS
FREDERICKSBRG* PTCLDY    56  56 100 CALM      29.82R
STAFFORD*      FOG       54  54 100 CALM      29.86R VSB 1/2

$$

NCZ024-NYZ072-PAZ021-071-VAZ022-071-271100-
OTHER REGIONAL OBSERVATIONS

CITY           SKY/WX    TMP DP  RH WIND       PRES   REMARKS
NEW YORK CITY  CLOUDY    59  58  96 CALM      29.89R FOG
PHILADELPHIA   CLOUDY    60  58  92 SE3       29.87
PITTSBURGH     MOCLDY    59  56  89 SE6       29.67F
ROANOKE        CLEAR     57  57 100 CALM      29.83S
RICHMOND       CLEAR     61  61 100 S6        29.83R
RALEIGH        PTCLDY    63  58  83 S8        29.86F

$$

ANZ530>537-271100-
MARINE OBSERVATIONS

STATION/POSITION TIME  TEMP    WIND        PRES
                       AIR SEA DIR/SP/G
                 (UTC) (F)     (DEG/KT/KT) (MB)
THOMAS PT LIGHT  1000   58 56  100/  5/  5   N/A
BALT KEY BRIDGE  0948   58      70/  4/  4 1010.4R
COVE POINT       0948   59     180/  9/ 10 1010.6R
LEWISETTA        0948   61 62  170/  3/  4 1009.7R
SOLOMONS ISLAND  0948   59 59  110/  5/  5   N/A
PINEY POINT      0948          140/  7/  7   N/A

$$





USA.gov is the U.S. government's official web portal to all federal, state and local government web resources and services.